Location: Hopkins Observatory
(42.6965°N, 73.1843°W)
Time: 14:19:58
(UTC-04:00)

UOSAT-12 - Visible Passes

Search period start: 23 September 2014 00:00
Search period end: 03 October 2014 00:00
Orbit: 594 x 664 km, 64.6° (Epoch: 21 September)

Date Brightness Start Highest point End Pass type
(mag) Time Alt. Az. Time Alt. Az. Time Alt. Az.
24 Sep 9.9 06:10:50 10° N 06:13:33 15° NE 06:16:15 10° ENE visible
26 Sep 10.2 05:13:08 10° NNE 05:14:01 10° NNE 05:14:53 10° NE visible
27 Sep 9.9 05:32:03 10° N 05:35:10 17° NE 05:38:14 10° ENE visible
28 Sep 9.2 05:51:58 10° NNW 05:56:07 29° NE 06:00:12 10° ESE visible
29 Sep 10.1 04:33:52 10° N 04:35:39 12° NNE 04:37:25 10° NE visible
29 Sep 8.0 06:12:12 10° NNW 06:16:52 55° NE 06:21:26 10° SE visible
30 Sep 9.7 04:53:18 10° N 04:56:45 19° NE 05:00:09 10° E visible
01 Oct 8.8 05:13:19 10° NNW 05:17:38 34° NE 05:21:54 10° ESE visible
02 Oct 10.1 03:54:55 10° N 03:57:16 13° NNE 03:59:36 10° ENE visible
02 Oct 7.6 05:33:36 10° NNW 05:38:20 67° NE 05:42:58 10° SE visible
